Location: Naloco
(16.5478°S, 37.1017°E)
Time: 01:30:01
(UTC+00:00)

Cosmos 1833 Rocket - Pass Details

Date: 13 August 2020
Orbit: 831 x 841 km, 71.0° (Epoch: 23 September)

Event Time Altitude Azimuth Distance (km) Brightness Sun altitude
Rises 15:46:05 0° 201° (SSW) 3,388 6.0 -6.3°
Reaches altitude 10° 15:48:33 10° 204° (SSW) 2,449 5.3 -6.9°
Maximum altitude 15:54:07 67° 285° (WNW) 901 3.2 -8.2°
Drops below altitude 10° 15:59:38 10° 7° (N) 2,427 5.2 -9.5°
Sets 16:02:04 0° 10° (N) 3,355 5.9 -10.1°
